星链-30204 (STARLINK-30204 )

导读

STARLINK-30204是美国太空探索技术公司(SpaceX)星链卫星互联网星座中的一颗卫星,于2023年7月28日由SpaceX发射入轨,加入星链低轨星座组网运行,为全球提供高速卫星互联网接入服务,是星链星座规模扩张、完善全球服务覆盖的组成部分。

基本信息
目录编号:
57472
目录名称:
STARLINK-30204
国际标识:
2023-107R
轨道中心:
EARTH
卫星名称:
星链-30204
卫星全名:
星链-30204 (STARLINK-30204 )
卫星状态:
在轨 (已飞行1055 天)
发射日期:
2023-07-28 UTC
国别 :
美国 (US)
星等 :
--
轨道信息
数据来源 国际轨道数据 AOE轨道数据
星历时间 2026-06-17T12:25:46+0800
12小时前
查看轨道信息
2026-06-17T02:00:00+0800
22小时前
查看轨道信息
半长轴 6861.194km 6861.198km
偏心率 0.0001519 0.0001275
轨道倾角 43.004° 43.001°
近地点辐角 277.042° 276.088°
升交点赤经 134.199° 136.656°
平近点角 83.026° 211.407°
近地点 482.014km 482.186km
远地点 484.1km 483.936km
周期 94.267分钟 94.267分钟
每日圈数 15.275776 15.275761
详细信息
固有亮度:
5
最大亮度:
0.3
卫星平台:
Starlink v2.0 mini
覆盖范围:
全球
运营商:
太空探索技术公司
运营商所在国:
美国
制造商(研发单位):
太空探索技术公司
制造商所在国:
美国
使用方式:
暂无
卫星简介
星链(Starlink)计划是由太空探索技术公司(SpaceX)提出的一个巨型低轨卫星互联网星座项目,计划在2019年至2024年间在太空搭建由约1.2万颗卫星组成的“星链”网络,其中1584颗将部署在地球上空550千米处的近地轨道,并从2020年开始工作。该卫星仍在工作。
2D轨道图
3D轨道图
轨道高度分析图
轨道倾角分析图
轨道综合分析图
查看轨道综合分析图